| time (UTC) | temp C | wind direction | speed KPH | gust KPH | rain 1hr cm | rain 24hr cm | rain mn cm | humidity % | barometer mb |
| 20260901000828 | 25 | 173 | 0.0 | 9.7 | 0.00 | 0.05 | 0.05 | 80 | 1012.8 |
| 20260901000330 | 25 | 173 | 0.0 | 9.7 | 0.00 | 0.05 | 0.05 | 79 | 1013.0 |
| 20260831235833 | 25 | 174 | 0.0 | 8.0 | 0.00 | 0.05 | 0.05 | 79 | 1013.0 |
| 20260831235318 | 25 | 174 | 0.0 | 8.0 | 0.00 | 0.05 | 0.05 | 79 | 1013.0 |
| 20260831234823 | 25 | 174 | 0.0 | 6.4 | 0.00 | 0.05 | 0.05 | 80 | 1012.9 |
| 20260831234327 | 25 | 174 | 0.0 | 3.2 | 0.00 | 0.05 | 0.05 | 80 | 1012.9 |
| 20260831233841 | 25 | 174 | 0.0 | 1.6 | 0.00 | 0.05 | 0.05 | 80 | 1012.9 |
| 20260831233341 | 26 | 174 | 0.0 | 1.6 | 0.00 | 0.05 | 0.05 | 79 | 1014.0 |
| 20260831232821 | 26 | 182 | 0.0 | 0.0 | 0.00 | 0.05 | 0.05 | 79 | 1014.0 |
| 20260831232326 | 26 | 182 | 0.0 | 0.0 | 0.00 | 0.05 | 0.05 | 78 | 1014.0 |
| 20260831231903 | 26 | 182 | 0.0 | 0.0 | 0.00 | 0.05 | 0.05 | 77 | 1014.5 |
| 20260831231343 | 26 | 182 | 0.0 | 0.0 | 0.00 | 0.05 | 0.05 | 78 | 1014.5 |
| 20260831230825 | 26 | 182 | 0.0 | 0.0 | 0.00 | 0.05 | 0.05 | 77 | 1014.5 |
| 20260831230331 | 26 | 182 | 0.0 | 1.6 | 0.00 | 0.10 | 0.05 | 76 | 1014.1 |
| 20260831225819 | 26 | 182 | 0.0 | 1.6 | 0.00 | 0.10 | 0.05 | 77 | 1014.1 |
| 20260831225338 | 26 | 188 | 0.0 | 0.0 | 0.00 | 0.10 | 0.05 | 79 | 1014.1 |
| 20260831224843 | 26 | 206 | 0.0 | 0.0 | 0.00 | 0.10 | 0.05 | 79 | 1014.6 |
| 20260831224335 | 26 | 209 | 0.0 | 0.0 | 0.00 | 0.10 | 0.05 | 79 | 1014.6 |
| 20260831223821 | 26 | 209 | 0.0 | 0.0 | 0.00 | 0.10 | 0.05 | 78 | 1014.6 |
| 20260831223345 | 26 | 209 | 0.0 | 0.0 | 0.00 | 0.10 | 0.05 | 79 | 1015.0 |
| 20260831222816 | 26 | 209 | 0.0 | 0.0 | 0.00 | 0.10 | 0.05 | 80 | 1015.0 |
| 20260831222326 | 26 | 209 | 0.0 | 0.0 | 0.03 | 0.10 | 0.05 | 80 | 1015.0 |
| 20260831221824 | 26 | 209 | 0.0 | 0.0 | 0.03 | 0.10 | 0.05 | 80 | 1014.8 |
| 20260831221346 | 26 | 209 | 0.0 | 0.0 | 0.03 | 0.10 | 0.05 | 80 | 1014.8 |
| 20260831220842 | 26 | 209 | 0.0 | 0.0 | 0.03 | 0.10 | 0.05 | 79 | 1014.8 |
| 20260831220327 | 26 | 209 | 0.0 | 0.0 | 0.03 | 0.10 | 0.05 | 79 | 1015.0 |
| 20260831215831 | 26 | 209 | 0.0 | 0.0 | 0.03 | 0.10 | 0.05 | 79 | 1015.0 |
| 20260831215311 | 27 | 209 | 0.0 | 0.0 | 0.03 | 0.10 | 0.05 | 77 | 1015.0 |
| 20260831214820 | 27 | 209 | 0.0 | 0.0 | 0.03 | 0.10 | 0.05 | 75 | 1015.0 |
| 20260831214321 | 27 | 209 | 0.0 | 0.0 | 0.03 | 0.10 | 0.05 | 73 | 1015.0 |
| 20260831213827 | 27 | 209 | 0.0 | 0.0 | 0.03 | 0.10 | 0.05 | 72 | 1015.0 |
| 20260831213340 | 28 | 209 | 0.0 | 0.0 | 0.03 | 0.10 | 0.05 | 71 | 1014.5 |
| 20260831212827 | 28 | 209 | 0.0 | 0.0 | 0.03 | 0.10 | 0.05 | 69 | 1014.5 |
| 20260831212335 | 28 | 209 | 0.0 | 6.4 | 0.00 | 0.08 | 0.03 | 66 | 1014.5 |
| 20260831211819 | 28 | 208 | 0.0 | 6.4 | 0.00 | 0.08 | 0.03 | 63 | 1014.0 |
| 20260831211323 | 28 | 211 | 0.0 | 12.9 | 0.00 | 0.08 | 0.03 | 65 | 1014.0 |
| 20260831210824 | 28 | 213 | 3.2 | 12.9 | 0.00 | 0.08 | 0.03 | 65 | 1014.0 |
| 20260831210332 | 28 | 219 | 0.0 | 11.3 | 0.00 | 0.08 | 0.03 | 66 | 1013.6 |
| 20260831205823 | 29 | 232 | 0.0 | 9.7 | 0.00 | 0.08 | 0.03 | 66 | 1013.6 |
| 20260831205342 | 29 | 213 | 0.0 | 12.9 | 0.00 | 0.08 | 0.03 | 65 | 1013.6 |
| 20260831204824 | 29 | 213 | 4.8 | 14.5 | 0.00 | 0.08 | 0.03 | 63 | 1013.5 |
| 20260831204328 | 29 | 186 | 4.8 | 14.5 | 0.00 | 0.08 | 0.03 | 62 | 1013.5 |
| 20260831203830 | 29 | 183 | 3.2 | 12.9 | 0.00 | 0.08 | 0.03 | 63 | 1013.5 |
| 20260831203315 | 29 | 234 | 3.2 | 14.5 | 0.00 | 0.08 | 0.03 | 64 | 1013.5 |
| 20260831202817 | 29 | 227 | 0.0 | 14.5 | 0.00 | 0.08 | 0.03 | 65 | 1013.5 |
| 20260831202322 | 29 | 215 | 8.0 | 14.5 | 0.00 | 0.08 | 0.03 | 67 | 1013.5 |
| 20260831201828 | 29 | 221 | 1.6 | 12.9 | 0.00 | 0.08 | 0.03 | 67 | 1013.7 |
| 20260831201331 | 29 | 186 | 3.2 | 12.9 | 0.00 | 0.08 | 0.03 | 66 | 1013.7 |
| 20260831200812 | 29 | 195 | 0.0 | 16.1 | 0.00 | 0.08 | 0.03 | 67 | 1013.7 |
| 20260831200326 | 29 | 224 | 1.6 | 29.0 | 0.00 | 0.08 | 0.03 | 67 | 1013.9 |
| 20260831195830 | 29 | 206 | 4.8 | 29.0 | 0.00 | 0.08 | 0.03 | 67 | 1013.9 |
| 20260831195313 | 28 | 217 | 3.2 | 24.1 | 0.00 | 0.08 | 0.03 | 67 | 1013.9 |
| 20260831194820 | 28 | 231 | 1.6 | 17.7 | 0.00 | 0.08 | 0.03 | 67 | 1014.0 |
| 20260831194320 | 28 | 245 | 4.8 | 17.7 | 0.00 | 0.08 | 0.03 | 69 | 1014.0 |
| 20260831193819 | 28 | 182 | 4.8 | 17.7 | 0.00 | 0.08 | 0.03 | 69 | 1014.0 |
| 20260831193324 | 28 | 183 | 1.6 | 16.1 | 0.00 | 0.08 | 0.03 | 69 | 1014.1 |
| 20260831192826 | 28 | 221 | 3.2 | 19.3 | 0.00 | 0.08 | 0.03 | 71 | 1014.1 |
| 20260831192316 | 28 | 229 | 4.8 | 19.3 | 0.00 | 0.08 | 0.03 | 70 | 1014.1 |
| 20260831191827 | 28 | 219 | 6.4 | 19.3 | 0.00 | 0.08 | 0.03 | 69 | 1014.5 |
| 20260831191337 | 28 | 196 | 0.0 | 11.3 | 0.00 | 0.08 | 0.03 | 69 | 1014.5 |
| 20260831190820 | 28 | 251 | 0.0 | 17.7 | 0.03 | 0.08 | 0.03 | 70 | 1014.5 |
| 20260831190342 | 28 | 213 | 1.6 | 17.7 | 0.03 | 0.08 | 0.03 | 69 | 1014.1 |
| 20260831185853 | 28 | 184 | 1.6 | 16.1 | 0.03 | 0.08 | 0.03 | 70 | 1014.1 |
| 20260831185331 | 28 | 205 | 4.8 | 16.1 | 0.03 | 0.08 | 0.03 | 70 | 1014.1 |
| 20260831184818 | 28 | 208 | 0.0 | 17.7 | 0.03 | 0.08 | 0.03 | 71 | 1014.1 |
| 20260831184320 | 28 | 190 | 0.0 | 16.1 | 0.03 | 0.08 | 0.03 | 71 | 1014.1 |
| 20260831183822 | 27 | 200 | 6.4 | 16.1 | 0.03 | 0.08 | 0.03 | 71 | 1014.1 |
| 20260831183355 | 28 | 192 | 1.6 | 16.1 | 0.03 | 0.08 | 0.03 | 70 | 1014.1 |
| 20260831182820 | 28 | 192 | 3.2 | 16.1 | 0.03 | 0.08 | 0.03 | 71 | 1014.1 |
| 20260831182327 | 28 | 199 | 4.8 | 14.5 | 0.03 | 0.08 | 0.03 | 72 | 1014.1 |
| 20260831181818 | 28 | 221 | 1.6 | 12.9 | 0.03 | 0.08 | 0.03 | 72 | 1014.6 |
| 20260831181321 | 28 | 171 | 1.6 | 16.1 | 0.03 | 0.08 | 0.03 | 72 | 1014.6 |
| 20260831180836 | 27 | 266 | 3.2 | 16.1 | 0.00 | 0.05 | 0.00 | 74 | 1014.6 |
| 20260831180339 | 27 | 208 | 1.6 | 9.7 | 0.00 | 0.05 | 0.00 | 73 | 1015.0 |
| 20260831175840 | 27 | 192 | 1.6 | 9.7 | 0.00 | 0.05 | 0.00 | 73 | 1015.0 |
| 20260831175326 | 27 | 225 | 1.6 | 9.7 | 0.00 | 0.05 | 0.00 | 74 | 1015.0 |
| 20260831174843 | 27 | 195 | 0.0 | 3.2 | 0.00 | 0.05 | 0.00 | 73 | 1015.1 |
| 20260831174323 | 27 | 234 | 0.0 | 9.7 | 0.00 | 0.05 | 0.00 | 74 | 1015.1 |
| 20260831173829 | 27 | 234 | 1.6 | 9.7 | 0.00 | 0.05 | 0.00 | 75 | 1015.1 |
| 20260831173313 | 27 | 208 | 0.0 | 8.0 | 0.00 | 0.05 | 0.00 | 75 | 1015.3 |
| 20260831172822 | 27 | 208 | 0.0 | 6.4 | 0.00 | 0.05 | 0.00 | 75 | 1015.3 |
| 20260831172327 | 26 | 208 | 0.0 | 1.6 | 0.00 | 0.05 | 0.00 | 76 | 1015.3 |
| 20260831171832 | 26 | 208 | 0.0 | 9.7 | 0.00 | 0.05 | 0.00 | 75 | 1015.6 |
| 20260831171318 | 26 | 208 | 1.6 | 9.7 | 0.00 | 0.05 | 0.00 | 75 | 1015.6 |
| 20260831170823 | 26 | 200 | 0.0 | 0.0 | 0.00 | 0.05 | 0.00 | 75 | 1015.6 |
| 20260831170344 | 26 | 200 | 0.0 | 1.6 | 0.00 | 0.10 | 0.00 | 75 | 1015.5 |
| 20260831165825 | 26 | 200 | 0.0 | 1.6 | 0.00 | 0.10 | 0.00 | 75 | 1015.5 |
| 20260831165336 | 26 | 199 | 0.0 | 1.6 | 0.00 | 0.10 | 0.00 | 75 | 1015.5 |
| 20260831164819 | 26 | 199 | 0.0 | 3.2 | 0.00 | 0.10 | 0.00 | 74 | 1015.6 |
| 20260831164320 | 27 | 207 | 0.0 | 9.7 | 0.00 | 0.10 | 0.00 | 74 | 1015.6 |
| 20260831163835 | 27 | 217 | 0.0 | 11.3 | 0.00 | 0.10 | 0.00 | 74 | 1015.6 |
| 20260831163339 | 27 | 235 | 1.6 | 11.3 | 0.00 | 0.10 | 0.00 | 74 | 1015.6 |
| 20260831162825 | 27 | 215 | 3.2 | 14.5 | 0.00 | 0.10 | 0.00 | 74 | 1015.6 |
| 20260831162349 | 27 | 227 | 1.6 | 9.7 | 0.00 | 0.10 | 0.00 | 75 | 1015.6 |
| 20260831161830 | 27 | 222 | 0.0 | 14.5 | 0.00 | 0.10 | 0.00 | 74 | 1015.5 |
| 20260831161345 | 27 | 219 | 3.2 | 12.9 | 0.00 | 0.10 | 0.00 | 74 | 1015.5 |
| 20260831160826 | 26 | 217 | 1.6 | 12.9 | 0.00 | 0.10 | 0.00 | 75 | 1015.5 |
| 20260831160334 | 26 | 186 | 3.2 | 12.9 | 0.00 | 0.10 | 0.00 | 75 | 1015.6 |
| 20260831155820 | 26 | 219 | 4.8 | 12.9 | 0.00 | 0.10 | 0.00 | 76 | 1015.6 |
| 20260831155321 | 26 | 225 | 0.0 | 1.6 | 0.00 | 0.10 | 0.00 | 76 | 1015.6 |
| 20260831154826 | 26 | 225 | 0.0 | 8.0 | 0.00 | 0.10 | 0.00 | 76 | 1015.4 |
| 20260831154329 | 26 | 225 | 0.0 | 12.9 | 0.00 | 0.10 | 0.00 | 77 | 1015.4 |
| 20260831153842 | 26 | 225 | 3.2 | 12.9 | 0.00 | 0.10 | 0.00 | 77 | 1015.4 |
| 20260831153324 | 26 | 221 | 0.0 | 12.9 | 0.00 | 0.10 | 0.00 | 77 | 1015.5 |
| 20260831152834 | 26 | 221 | 1.6 | 12.9 | 0.00 | 0.10 | 0.00 | 77 | 1015.5 |
| 20260831152314 | 26 | 223 | 3.2 | 14.5 | 0.00 | 0.10 | 0.00 | 77 | 1015.5 |
| 20260831151821 | 26 | 223 | 0.0 | 8.0 | 0.00 | 0.10 | 0.00 | 78 | 1015.6 |
| 20260831151323 | 26 | 221 | 0.0 | 6.4 | 0.00 | 0.10 | 0.00 | 78 | 1015.6 |
| 20260831150828 | 26 | 221 | 0.0 | 6.4 | 0.00 | 0.10 | 0.00 | 78 | 1015.6 |
| 20260831150311 | 25 | 221 | 0.0 | 6.4 | 0.00 | 0.13 | 0.00 | 78 | 1015.6 |
| 20260831145848 | 25 | 221 | 0.0 | 1.6 | 0.00 | 0.13 | 0.00 | 79 | 1015.6 |
| 20260831145347 | 25 | 221 | 0.0 | 8.0 | 0.00 | 0.13 | 0.00 | 78 | 1015.6 |
| 20260831144828 | 25 | 221 | 0.0 | 8.0 | 0.00 | 0.13 | 0.00 | 78 | 1015.6 |
| 20260831144343 | 25 | 223 | 0.0 | 14.5 | 0.00 | 0.13 | 0.00 | 78 | 1015.6 |
| 20260831143824 | 25 | 202 | 4.8 | 14.5 | 0.00 | 0.13 | 0.00 | 78 | 1015.6 |
| 20260831143332 | 25 | 228 | 0.0 | 12.9 | 0.00 | 0.13 | 0.00 | 78 | 1015.5 |
| 20260831142820 | 25 | 228 | 0.0 | 12.9 | 0.00 | 0.13 | 0.00 | 78 | 1015.5 |
| 20260831142335 | 25 | 229 | 0.0 | 12.9 | 0.00 | 0.13 | 0.00 | 78 | 1015.5 |
| 20260831141820 | 25 | 225 | 0.0 | 16.1 | 0.00 | 0.13 | 0.00 | 78 | 1015.1 |
| 20260831141322 | 25 | 220 | 1.6 | 16.1 | 0.00 | 0.13 | 0.00 | 78 | 1015.1 |
| 20260831140826 | 25 | 215 | 0.0 | 14.5 | 0.00 | 0.13 | 0.00 | 78 | 1015.1 |
| 20260831140341 | 25 | 202 | 1.6 | 17.7 | 0.00 | 0.13 | 0.00 | 78 | 1015.1 |
| 20260831135827 | 25 | 215 | 0.0 | 17.7 | 0.00 | 0.13 | 0.00 | 78 | 1015.1 |
| 20260831135312 | 25 | 227 | 0.0 | 12.9 | 0.00 | 0.13 | 0.00 | 78 | 1015.1 |
| 20260831134815 | 25 | 227 | 1.6 | 16.1 | 0.00 | 0.13 | 0.00 | 79 | 1015.0 |
| 20260831134316 | 25 | 213 | 6.4 | 16.1 | 0.00 | 0.13 | 0.00 | 79 | 1015.0 |
| 20260831133819 | 25 | 198 | 1.6 | 14.5 | 0.00 | 0.13 | 0.00 | 80 | 1015.0 |
| 20260831133331 | 24 | 199 | 0.0 | 9.7 | 0.00 | 0.13 | 0.00 | 81 | 1014.9 |
| 20260831132814 | 24 | 199 | 0.0 | 6.4 | 0.00 | 0.13 | 0.00 | 81 | 1014.9 |
| 20260831132346 | 23 | 213 | 0.0 | 12.9 | 0.00 | 0.13 | 0.00 | 81 | 1014.9 |
| 20260831131845 | 23 | 190 | 0.0 | 12.9 | 0.00 | 0.13 | 0.00 | 81 | 1015.0 |
| 20260831131359 | 23 | 197 | 1.6 | 11.3 | 0.00 | 0.13 | 0.00 | 81 | 1015.0 |
| 20260831130824 | 23 | 174 | 0.0 | 9.7 | 0.00 | 0.13 | 0.00 | 81 | 1015.0 |
| 20260831130332 | 23 | 188 | 1.6 | 9.7 | 0.00 | 0.15 | 0.00 | 81 | 1014.9 |
| 20260831125817 | 23 | 177 | 1.6 | 9.7 | 0.00 | 0.15 | 0.00 | 81 | 1014.9 |
| 20260831125326 | 23 | 178 | 3.2 | 9.7 | 0.00 | 0.15 | 0.00 | 81 | 1014.9 |
| 20260831124826 | 22 | 188 | 1.6 | 9.7 | 0.00 | 0.15 | 0.00 | 81 | 1014.8 |
| 20260831124327 | 22 | 197 | 0.0 | 6.4 | 0.00 | 0.15 | 0.00 | 81 | 1014.8 |
| 20260831123843 | 22 | 179 | 0.0 | 1.6 | 0.00 | 0.15 | 0.00 | 81 | 1014.8 |
| 20260831123343 | 22 | 179 | 0.0 | 1.6 | 0.00 | 0.15 | 0.00 | 82 | 1014.7 |
| 20260831122827 | 22 | 179 | 0.0 | 1.6 | 0.00 | 0.15 | 0.00 | 82 | 1014.7 |
| 20260831122329 | 22 | 179 | 0.0 | 1.6 | 0.00 | 0.15 | 0.00 | 82 | 1014.7 |
| 20260831121850 | 22 | 179 | 0.0 | 1.6 | 0.00 | 0.15 | 0.00 | 82 | 1014.7 |
| 20260831121317 | 22 | 179 | 0.0 | 1.6 | 0.00 | 0.15 | 0.00 | 82 | 1014.7 |
| 20260831120832 | 22 | 179 | 0.0 | 1.6 | 0.00 | 0.15 | 0.00 | 82 | 1014.7 |
| 20260831120335 | 22 | 179 | 0.0 | 1.6 | 0.00 | 0.15 | 0.00 | 82 | 1014.8 |
| 20260831115823 | 22 | 179 | 0.0 | 0.0 | 0.00 | 0.15 | 0.00 | 81 | 1014.8 |
| 20260831115326 | 22 | 179 | 0.0 | 0.0 | 0.00 | 0.15 | 0.00 | 81 | 1014.8 |
| 20260831114828 | 22 | 179 | 0.0 | 0.0 | 0.00 | 0.15 | 0.00 | 81 | 1014.9 |
| 20260831114311 | 22 | 179 | 0.0 | 0.0 | 0.00 | 0.15 | 0.00 | 81 | 1014.9 |
| 20260831113815 | 22 | 179 | 0.0 | 0.0 | 0.00 | 0.15 | 0.00 | 81 | 1014.9 |
| 20260831113321 | 22 | 179 | 0.0 | 1.6 | 0.00 | 0.15 | 0.00 | 82 | 1014.6 |
| 20260831112858 | 22 | 179 | 0.0 | 1.6 | 0.00 | 0.15 | 0.00 | 81 | 1014.6 |
| 20260831112338 | 22 | 185 | 0.0 | 1.6 | 0.00 | 0.15 | 0.00 | 81 | 1014.6 |
| 20260831111823 | 22 | 185 | 0.0 | 1.6 | 0.00 | 0.15 | 0.00 | 81 | 1014.5 |
| 20260831111329 | 22 | 222 | 0.0 | 0.0 | 0.00 | 0.15 | 0.00 | 81 | 1014.5 |
| 20260831110844 | 22 | 222 | 0.0 | 1.6 | 0.00 | 0.15 | 0.00 | 81 | 1014.5 |
| 20260831110330 | 22 | 223 | 0.0 | 1.6 | 0.00 | 0.15 | 0.00 | 81 | 1014.6 |
| 20260831105848 | 22 | 241 | 0.0 | 0.0 | 0.00 | 0.15 | 0.00 | 81 | 1014.6 |
| 20260831105329 | 22 | 241 | 0.0 | 0.0 | 0.00 | 0.15 | 0.00 | 81 | 1014.6 |
| 20260831104830 | 23 | 241 | 0.0 | 0.0 | 0.00 | 0.15 | 0.00 | 81 | 1014.6 |
| 20260831104317 | 23 | 241 | 0.0 | 0.0 | 0.00 | 0.15 | 0.00 | 81 | 1014.6 |
| 20260831103817 | 23 | 242 | 0.0 | 0.0 | 0.00 | 0.15 | 0.00 | 81 | 1014.6 |
| 20260831103319 | 23 | 242 | 0.0 | 0.0 | 0.00 | 0.15 | 0.00 | 81 | 1014.5 |
| 20260831102853 | 23 | 242 | 0.0 | 0.0 | 0.00 | 0.15 | 0.00 | 81 | 1014.5 |
| 20260831102333 | 23 | 242 | 0.0 | 0.0 | 0.00 | 0.15 | 0.00 | 80 | 1014.5 |
| 20260831101823 | 23 | 242 | 0.0 | 0.0 | 0.00 | 0.15 | 0.00 | 80 | 1014.5 |
| 20260831101327 | 23 | 242 | 0.0 | 0.0 | 0.00 | 0.15 | 0.00 | 80 | 1014.5 |
| 20260831100840 | 23 | 242 | 0.0 | 0.0 | 0.00 | 0.15 | 0.00 | 80 | 1014.5 |
| 20260831100327 | 23 | 242 | 0.0 | 6.4 | 0.00 | 0.15 | 0.00 | 80 | 1014.5 |
| 20260831095828 | 23 | 242 | 0.0 | 6.4 | 0.00 | 0.15 | 0.00 | 80 | 1014.5 |
| 20260831095319 | 23 | 256 | 0.0 | 11.3 | 0.00 | 0.15 | 0.00 | 80 | 1014.5 |
| 20260831094812 | 23 | 256 | 0.0 | 12.9 | 0.00 | 0.15 | 0.00 | 80 | 1014.5 |
| 20260831094320 | 23 | 242 | 0.0 | 12.9 | 0.00 | 0.15 | 0.00 | 80 | 1014.5 |
| 20260831093824 | 23 | 236 | 4.8 | 12.9 | 0.00 | 0.15 | 0.00 | 80 | 1014.5 |
| 20260831093328 | 23 | 219 | 0.0 | 19.3 | 0.00 | 0.15 | 0.00 | 80 | 1014.2 |
| 20260831092832 | 23 | 229 | 0.0 | 11.3 | 0.00 | 0.15 | 0.00 | 80 | 1014.2 |
| 20260831092348 | 23 | 229 | 0.0 | 11.3 | 0.00 | 0.15 | 0.00 | 80 | 1014.2 |
| 20260831091829 | 23 | 229 | 1.6 | 8.0 | 0.00 | 0.15 | 0.00 | 80 | 1014.2 |
| 20260831091316 | 23 | 231 | 0.0 | 6.4 | 0.00 | 0.15 | 0.00 | 80 | 1014.2 |
| 20260831090819 | 23 | 231 | 0.0 | 11.3 | 0.00 | 0.15 | 0.00 | 80 | 1014.2 |
| 20260831090324 | 23 | 234 | 1.6 | 17.7 | 0.00 | 0.15 | 0.00 | 81 | 1014.0 |
| 20260831085829 | 23 | 211 | 1.6 | 17.7 | 0.00 | 0.15 | 0.00 | 81 | 1014.0 |
| 20260831085345 | 23 | 172 | 0.0 | 6.4 | 0.00 | 0.15 | 0.00 | 81 | 1014.0 |
| 20260831084826 | 22 | 171 | 0.0 | 6.4 | 0.00 | 0.15 | 0.00 | 81 | 1014.0 |
| 20260831084325 | 22 | 171 | 0.0 | 1.6 | 0.00 | 0.15 | 0.00 | 82 | 1014.0 |
| 20260831083851 | 22 | 180 | 0.0 | 1.6 | 0.00 | 0.15 | 0.00 | 82 | 1014.0 |
| 20260831083320 | 22 | 180 | 0.0 | 6.4 | 0.00 | 0.15 | 0.00 | 82 | 1014.2 |
| 20260831082838 | 22 | 206 | 0.0 | 0.0 | 0.00 | 0.15 | 0.00 | 82 | 1014.2 |
| 20260831082341 | 22 | 206 | 0.0 | 0.0 | 0.00 | 0.15 | 0.00 | 82 | 1014.2 |
| 20260831081845 | 22 | 206 | 0.0 | 8.0 | 0.00 | 0.15 | 0.00 | 82 | 1014.5 |
| 20260831081333 | 22 | 206 | 1.6 | 8.0 | 0.00 | 0.15 | 0.00 | 83 | 1014.5 |
| 20260831080817 | 22 | 209 | 0.0 | 0.0 | 0.00 | 0.15 | 0.00 | 82 | 1014.5 |
| 20260831080322 | 22 | 209 | 0.0 | 8.0 | 0.00 | 0.15 | 0.00 | 82 | 1014.6 |
| 20260831075826 | 22 | 209 | 0.0 | 8.0 | 0.00 | 0.15 | 0.00 | 82 | 1014.6 |
| 20260831075342 | 22 | 209 | 0.0 | 9.7 | 0.00 | 0.15 | 0.00 | 82 | 1014.6 |
| 20260831074824 | 22 | 209 | 0.0 | 9.7 | 0.00 | 0.15 | 0.00 | 82 | 1014.8 |
| 20260831074348 | 22 | 212 | 0.0 | 11.3 | 0.00 | 0.15 | 0.00 | 82 | 1014.8 |
| 20260831073815 | 22 | 221 | 0.0 | 11.3 | 0.00 | 0.15 | 0.00 | 82 | 1014.8 |
| 20260831073321 | 22 | 186 | 0.0 | 0.0 | 0.00 | 0.15 | 0.00 | 82 | 1014.8 |
| 20260831072835 | 22 | 186 | 0.0 | 0.0 | 0.00 | 0.15 | 0.00 | 82 | 1014.8 |
| 20260831072343 | 22 | 186 | 0.0 | 0.0 | 0.00 | 0.15 | 0.00 | 82 | 1014.8 |
| 20260831071844 | 22 | 178 | 0.0 | 0.0 | 0.00 | 0.15 | 0.00 | 82 | 1015.0 |
| 20260831071357 | 22 | 178 | 0.0 | 1.6 | 0.00 | 0.15 | 0.00 | 82 | 1015.0 |
| 20260831070817 | 22 | 172 | 0.0 | 0.0 | 0.00 | 0.15 | 0.00 | 82 | 1015.0 |
| 20260831070322 | 22 | 172 | 0.0 | 0.0 | 0.00 | 0.15 | 0.00 | 82 | 1015.0 |
| 20260831065826 | 22 | 172 | 0.0 | 0.0 | 0.00 | 0.15 | 0.00 | 82 | 1015.0 |
| 20260831065358 | 22 | 172 | 0.0 | 0.0 | 0.00 | 0.15 | 0.00 | 82 | 1015.0 |
| 20260831064821 | 22 | 172 | 0.0 | 0.0 | 0.00 | 0.15 | 0.00 | 82 | 1015.0 |
| 20260831064345 | 22 | 172 | 0.0 | 0.0 | 0.00 | 0.15 | 0.00 | 82 | 1015.0 |
| 20260831063827 | 22 | 172 | 0.0 | 0.0 | 0.00 | 0.15 | 0.00 | 82 | 1015.0 |
| 20260831063315 | 22 | 172 | 0.0 | 0.0 | 0.00 | 0.15 | 0.00 | 82 | 1015.0 |
| 20260831062831 | 22 | 172 | 0.0 | 0.0 | 0.00 | 0.15 | 0.00 | 82 | 1015.0 |
| 20260831062318 | 22 | 172 | 0.0 | 0.0 | 0.00 | 0.15 | 0.00 | 82 | 1015.0 |
| 20260831061843 | 22 | 172 | 0.0 | 0.0 | 0.00 | 0.15 | 0.00 | 82 | 1015.0 |
| 20260831061356 | 22 | 172 | 0.0 | 0.0 | 0.00 | 0.15 | 0.00 | 82 | 1015.0 |
| 20260831060841 | 22 | 172 | 0.0 | 0.0 | 0.00 | 0.15 | 0.00 | 82 | 1015.0 |
| 20260831060326 | 22 | 172 | 0.0 | 0.0 | 0.00 | 0.15 | 0.00 | 82 | 1015.0 |
| 20260831055829 | 22 | 172 | 0.0 | 0.0 | 0.00 | 0.15 | 0.00 | 82 | 1015.0 |
| 20260831055314 | 22 | 172 | 0.0 | 0.0 | 0.00 | 0.15 | 0.00 | 82 | 1015.0 |
| 20260831054826 | 22 | 172 | 0.0 | 0.0 | 0.00 | 0.15 | 0.00 | 82 | 1015.1 |
| 20260831054352 | 22 | 172 | 0.0 | 0.0 | 0.00 | 0.15 | 0.00 | 82 | 1015.1 |
| 20260831053831 | 22 | 172 | 0.0 | 0.0 | 0.00 | 0.15 | 0.00 | 82 | 1015.1 |
| 20260831053315 | 22 | 172 | 0.0 | 0.0 | 0.00 | 0.15 | 0.00 | 82 | 1015.1 |
| 20260831052850 | 22 | 172 | 0.0 | 0.0 | 0.00 | 0.15 | 0.00 | 82 | 1015.1 |
| 20260831052337 | 22 | 172 | 0.0 | 0.0 | 0.00 | 0.15 | 0.00 | 82 | 1015.1 |
| 20260831051816 | 22 | 172 | 0.0 | 0.0 | 0.00 | 0.15 | 0.00 | 82 | 1015.2 |
| 20260831051338 | 22 | 172 | 0.0 | 0.0 | 0.00 | 0.15 | 0.00 | 82 | 1015.2 |
| 20260831050838 | 22 | 172 | 0.0 | 0.0 | 0.00 | 0.15 | 0.00 | 82 | 1015.2 |
| 20260831050319 | 22 | 172 | 0.0 | 0.0 | 0.00 | 0.15 | 0.00 | 82 | 1015.4 |
| 20260831045847 | 22 | 172 | 0.0 | 0.0 | 0.00 | 0.15 | 0.00 | 82 | 1015.4 |
| 20260831045315 | 22 | 172 | 0.0 | 0.0 | 0.00 | 0.15 | 0.00 | 82 | 1015.4 |
| 20260831044817 | 22 | 172 | 0.0 | 0.0 | 0.00 | 0.15 | 0.00 | 82 | 1015.4 |
| 20260831044331 | 22 | 172 | 0.0 | 0.0 | 0.00 | 0.15 | 0.00 | 82 | 1015.4 |
| 20260831043833 | 22 | 172 | 0.0 | 0.0 | 0.00 | 0.15 | 0.00 | 82 | 1015.4 |
| 20260831043319 | 22 | 172 | 0.0 | 0.0 | 0.00 | 0.15 | 0.00 | 82 | 1015.3 |
| 20260831042830 | 22 | 172 | 0.0 | 0.0 | 0.00 | 0.15 | 0.00 | 82 | 1015.3 |
| 20260831042347 | 22 | 172 | 0.0 | 0.0 | 0.00 | 0.15 | 0.00 | 82 | 1015.3 |
| 20260831041827 | 22 | 172 | 0.0 | 0.0 | 0.00 | 0.15 | 0.00 | 82 | 1015.4 |
| 20260831041331 | 22 | 172 | 0.0 | 0.0 | 0.00 | 0.15 | 0.00 | 82 | 1015.4 |
| 20260831040831 | 22 | 172 | 0.0 | 0.0 | 0.00 | 0.15 | 0.00 | 82 | 1015.4 |
| 20260831040328 | 22 | 172 | 0.0 | 0.0 | 0.00 | 0.15 | 0.15 | 82 | 1015.4 |
| 20260831035815 | 22 | 172 | 0.0 | 6.4 | 0.00 | 0.15 | 0.15 | 82 | 1015.4 |
| 20260831035317 | 22 | 173 | 0.0 | 6.4 | 0.00 | 0.15 | 0.15 | 82 | 1015.4 |
| 20260831034853 | 22 | 167 | 0.0 | 1.6 | 0.00 | 0.15 | 0.15 | 82 | 1015.1 |
| 20260831034333 | 22 | 167 | 0.0 | 1.6 | 0.00 | 0.15 | 0.15 | 82 | 1015.1 |
| 20260831033817 | 22 | 165 | 0.0 | 9.7 | 0.00 | 0.15 | 0.15 | 82 | 1015.1 |
| 20260831033314 | 22 | 163 | 3.2 | 11.3 | 0.00 | 0.15 | 0.15 | 82 | 1015.0 |
| 20260831032829 | 22 | 158 | 1.6 | 11.3 | 0.00 | 0.15 | 0.15 | 82 | 1015.0 |
| 20260831032332 | 22 | 163 | 1.6 | 11.3 | 0.00 | 0.15 | 0.15 | 82 | 1015.0 |
| 20260831031819 | 22 | 164 | 1.6 | 8.0 | 0.00 | 0.15 | 0.15 | 82 | 1015.1 |
| 20260831031323 | 22 | 161 | 3.2 | 9.7 | 0.00 | 0.15 | 0.15 | 82 | 1015.1 |
| 20260831030827 | 22 | 164 | 0.0 | 11.3 | 0.00 | 0.15 | 0.15 | 82 | 1015.1 |
| 20260831030317 | 22 | 151 | 3.2 | 11.3 | 0.00 | 0.15 | 0.15 | 82 | 1015.2 |
| 20260831025834 | 21 | 155 | 0.0 | 6.4 | 0.00 | 0.15 | 0.15 | 82 | 1015.2 |
| 20260831025319 | 21 | 147 | 1.6 | 6.4 | 0.00 | 0.15 | 0.15 | 82 | 1015.2 |
| 20260831024828 | 21 | 146 | 0.0 | 1.6 | 0.00 | 0.15 | 0.15 | 82 | 1015.2 |
| 20260831024316 | 21 | 146 | 0.0 | 1.6 | 0.00 | 0.15 | 0.15 | 82 | 1015.2 |
| 20260831023820 | 21 | 140 | 0.0 | 0.0 | 0.00 | 0.15 | 0.15 | 82 | 1015.2 |
| 20260831023355 | 21 | 139 | 0.0 | 0.0 | 0.00 | 0.15 | 0.15 | 82 | 1015.3 |
| 20260831022840 | 22 | 138 | 0.0 | 0.0 | 0.00 | 0.15 | 0.15 | 82 | 1015.3 |
| 20260831022317 | 22 | 138 | 0.0 | 0.0 | 0.00 | 0.15 | 0.15 | 82 | 1015.3 |
| 20260831021812 | 22 | 138 | 0.0 | 0.0 | 0.00 | 0.15 | 0.15 | 82 | 1015.2 |
| 20260831021322 | 22 | 138 | 0.0 | 0.0 | 0.00 | 0.15 | 0.15 | 82 | 1015.2 |
| 20260831020823 | 22 | 138 | 0.0 | 0.0 | 0.00 | 0.15 | 0.15 | 82 | 1015.2 |
| 20260831020328 | 22 | 137 | 0.0 | 0.0 | 0.00 | 0.15 | 0.15 | 82 | 1015.2 |
| 20260831015844 | 22 | 137 | 0.0 | 1.6 | 0.00 | 0.15 | 0.15 | 82 | 1015.2 |
| 20260831015327 | 22 | 137 | 0.0 | 1.6 | 0.00 | 0.15 | 0.15 | 82 | 1015.2 |
| 20260831014850 | 22 | 117 | 0.0 | 0.0 | 0.00 | 0.15 | 0.15 | 82 | 1015.1 |
| 20260831014315 | 22 | 117 | 0.0 | 0.0 | 0.00 | 0.15 | 0.15 | 82 | 1015.1 |
| 20260831013822 | 22 | 117 | 0.0 | 0.0 | 0.00 | 0.15 | 0.15 | 82 | 1015.1 |
| 20260831013338 | 22 | 117 | 0.0 | 0.0 | 0.00 | 0.15 | 0.15 | 82 | 1015.1 |
| 20260831012841 | 22 | 117 | 0.0 | 0.0 | 0.00 | 0.15 | 0.15 | 82 | 1015.1 |
| 20260831012328 | 22 | 117 | 0.0 | 0.0 | 0.00 | 0.15 | 0.15 | 82 | 1015.1 |
| 20260831011832 | 22 | 117 | 0.0 | 0.0 | 0.00 | 0.15 | 0.15 | 82 | 1014.8 |
| 20260831011315 | 22 | 117 | 0.0 | 0.0 | 0.00 | 0.15 | 0.15 | 82 | 1014.8 |
| 20260831010846 | 22 | 117 | 0.0 | 0.0 | 0.00 | 0.15 | 0.15 | 82 | 1014.8 |
| 20260831010347 | 22 | 117 | 0.0 | 0.0 | 0.00 | 0.15 | 0.15 | 82 | 1015.0 |
| 20260831005830 | 22 | 117 | 0.0 | 0.0 | 0.00 | 0.15 | 0.15 | 82 | 1015.0 |
| 20260831005318 | 22 | 117 | 0.0 | 0.0 | 0.00 | 0.15 | 0.15 | 82 | 1015.0 |
| 20260831004836 | 22 | 117 | 0.0 | 1.6 | 0.00 | 0.15 | 0.15 | 82 | 1014.9 |
| 20260831004323 | 22 | 117 | 0.0 | 1.6 | 0.00 | 0.15 | 0.15 | 82 | 1014.9 |
| 20260831003828 | 22 | 114 | 0.0 | 0.0 | 0.00 | 0.15 | 0.15 | 82 | 1014.9 |
| 20260831003408 | 22 | 113 | 0.0 | 0.0 | 0.00 | 0.15 | 0.15 | 82 | 1015.0 |
| 20260831002849 | 22 | 113 | 0.0 | 0.0 | 0.00 | 0.15 | 0.15 | 82 | 1015.0 |
| 20260831002315 | 22 | 113 | 0.0 | 0.0 | 0.00 | 0.15 | 0.15 | 82 | 1015.0 |
| 20260831001819 | 22 | 101 | 0.0 | 0.0 | 0.00 | 0.15 | 0.15 | 82 | 1015.1 |
| 20260831001321 | 22 | 101 | 0.0 | 1.6 | 0.00 | 0.15 | 0.15 | 82 | 1015.1 |